Погода в Даске

Пакистан     32°09′22″N   74°10′31″E
темп.,
°C
ветер,
м/с
пор.,
м/с
влажн.,
%
обл.,
%
осадки,
мм/ч
давл.,
гПа
погр.,
м
21 июня, пн
пн2123:00+33св46304 0.0 1000308
02:00+32с1235100 0.0 1001130
05:00+31св344216 0.0 1001175
08:00+34в333880 0.0 1003964
11:00+39юв112425 0.0 10022437
14:00+41зюз232057 0.0 9992900
17:00+41з34150 0.0 9973126
20:00+38сз36172 0.0 998468
22 июня, вт
вт2223:00+36з510235 0.0 999500
02:00+34з49277 0.0 998339
05:00+32зсз242981 0.0 99999
08:00+37ссз342010 0.0 1000628
11:00+41зсз3314100 0.0 10003096
14:00+44зсз441195 0.0 9974106
17:00+44зсз44105 0.0 9964576
20:00+40зюз36121 0.0 997207
23 июня, ср
ср2323:00+38зюз241426 0.0 99877
02:00+35зсз231752 0.0 99854
05:00+34з11185 0.0 99951
08:00+39сз35154 0.0 1000543
11:00+44сз111041 0.0 10002913
14:00+46зсз24108 0.0 9974597
17:00+46ссз5585 0.0 9964771
20:00+40юв24132 0.0 997205
24 июня, чт
чт2423:00+38ююз491822 0.0 997223
02:00+37зюз492363 0.0 997329
05:00+34зюз26285 0.0 998193
08:00+39з46260 0.0 9991189
11:00+44зсз44140 0.0 9983027
14:00+47ссз5587 0.0 9954866
17:00+40ююз101214100 0.1 994483
20:00+39юз361628 0.0 994172
25 июня, пт
пт2523:00+37сз122011 0.0 995119
02:00+36зюз382458 0.0 995263
05:00+34вюв123052 0.0 996158
08:00+37юз23280 0.0 9971089
11:00+42юз33210 0.0 9962237
14:00+45юз45150 0.0 9934655
17:00+45зюз661354 0.0 9904451
20:00+33св8153596 2.1 994529